Location: Appeville
(49.3218°N, 1.3427°W)
Time: 11:26:10
(UTC+00:00)

STARLINK 1024 - Pass Details

Date: 08 December 2019
Orbit: 468 x 470 km, 53.0° (Epoch: 24 January)

Event Time Altitude Azimuth Distance (km) Brightness Sun altitude
Exits shadow 05:34:46 45° 193° (SSW) 605 3.7 -20.5°
Drops below altitude 10° 05:37:48 10° 138° (SE) 1,550 6.7 -20.1°
Sets 05:39:57 0° 133° (SE) 2,419 7.9 -19.7°
